Regional Weather Roundup
Issued by NWS Binghamton, NY

Current Version | Previous Version | Text Only | Print | Product List | Glossary On
Versions: 1 2 3 4 5 6 7 8 9 10 11 12 13 14 15 16 17 18 19 20 21 22 23 24 25 26 27 28
000
ASUS41 KBGM 010310
RWRBGM

REGIONAL WEATHER ROUNDUP
NATIONAL WEATHER SERVICE BINGHAMTON NY
1100 PM EDT FRI SEP 30 2016

Note: "fair" indicates few or no clouds below 12,000 feet with no
significant weather and/or obstructions to visibility.

* = Station(s) that does not report precipitation, such as rain,
snow, etc, also no thunder or fog.

NYZ009-015>018-022>025-036-037-044>046-055>057-062-010400
...Central New York...

CITY           SKY/WX    TMP DP  RH WIND       PRES   REMARKS
Binghamton     CLOUDY    49  49 100 E8        30.28S FOG
Cortland       DRIZZLE   50  50 100 E6        30.29F
Dansville      CLOUDY    56  50  80 SE7       30.26F
Elmira         CLOUDY    53  50  89 NE7       30.26F
Ithaca         LGT RAIN  51  49  92 E6        30.29
Hamilton       CLOUDY    54  48  82 CALM      30.31F
Hornell        CLOUDY    54  50  87 SE6       30.28F
Monticello     CLOUDY    48  48 100 E9        30.30F
Norwich        CLOUDY    52  48  87 CALM      30.31F
Oneonta        CLOUDY    48  48 100 E5        30.30F FOG
Penn Yan       CLOUDY    53  51  93 CALM      30.29F
Rome           RAIN      51  50  96 E9        30.35S FOG
Sidney         DRIZZLE   54  54 100 CALM      30.30F
Syracuse       DRIZZLE   52  51  97 E9        30.31F FOG
$$

PAZ038>040-043-044-047-048-072-010400
...Northeast Pennsylvania...

CITY           SKY/WX    TMP DP  RH WIND       PRES   REMARKS
Hazleton       CLOUDY    54  52  94 E6        30.26S
Scranton       CLOUDY    55  51  86 NE8       30.25F
$$
&&
KEY
WCI = Wind Chill Index
VSB = Visibility
HX  = Heat Index
$$




USA.gov is the U.S. government's official web portal to all federal, state and local government web resources and services.